YAMAL 202

Last updated on Wed Sep 17 2025 00:02:46 GMT+0000 (Coordinated Universal Time)

1 28089U 03053A 25259.58447578 -.00000098 00000+0 00000+0 0 9995 2 28089 5.6480 74.2597 0005259 122.9725 172.4493 1.00272000 79957
UTC large
Height (km)
Speed (km/s)
/
Latitude / Longitude
Inclination (degrees)
Orbital Period (minutes)
Azimuth
Elevation
Range (km)
Doppler Factor

Next 0 passes for location: London (51.5072 / 0.1276)

Sorry there are no passes over London.